DW8397 Weather Reports


time (UTC)temp
F
wind
direction
speed
knots
gust
knots
rain 1hr
in
rain 24hr
in
rain mn
in
humidity
%
barometer
mb
20260508173021 49 203 7.0 13.0 0.00 0.00 0.00 44 1009.1
20260508171520 50 296 1.7 12.2 0.00 0.00 0.00 46 1009.1
20260508170022 50 260 0.9 8.7 0.00 0.00 0.00 48 1009.0
20260508164533 49 223 3.5 6.1 0.00 0.00 0.00 49 1009.3
20260508163017 48 304 2.6 13.0 0.00 0.00 0.00 49 1009.5
20260508161517 48 209 2.6 13.0 0.00 0.00 0.00 48 1009.4
20260508160032 49 195 4.3 11.3 0.00 0.00 0.00 45 1009.4
20260508154517 49 272 5.2 11.3 0.00 0.00 0.00 45 1009.3
20260508153017 50 277 7.0 11.3 0.00 0.00 0.00 43 1009.3
20260508151513 50 347 6.1 10.4 0.00 0.00 0.00 44 1009.0
20260508150010 49 221 4.3 10.4 0.00 0.00 0.00 45 1008.8
20260508144506 47 256 6.1 15.6 0.00 0.00 0.00 49 1009.1
20260508143006 48 325 9.6 18.2 0.00 0.00 0.00 45 1009.3
20260508141504 47 309 5.2 13.9 0.00 0.00 0.00 44 1009.3
20260508140001 47 229 8.7 14.8 0.00 0.00 0.00 45 1009.4
20260508134558 46 323 7.0 11.3 0.00 0.00 0.00 47 1009.5
20260508133054 44 278 8.7 15.6 0.00 0.00 0.00 51 1009.7
20260508131558 43 330 6.1 13.0 0.00 0.00 0.00 51 1009.6
20260508130049 43 323 0.9 11.3 0.00 0.00 0.00 56 1009.5
20260508124545 43 275 1.7 7.8 0.00 0.00 0.00 60 1009.4
20260508123042 41 241 1.7 5.2 0.00 0.00 0.00 69 1009.6
20260508121537 40 180 0.0 5.2 0.00 0.00 0.00 73 1009.7
20260508120038 38 199 0.0 3.5 0.00 0.00 0.00 80 1009.7
20260508114529 36 240 0.0 2.6 0.00 0.00 0.00 85 1009.8
20260508113027 35 74 0.0 0.0 0.00 0.00 0.00 89 1009.6
20260508111525 34 74 0.0 0.0 0.00 0.00 0.00 89 1009.5
20260508110023 33 323 0.0 0.0 0.00 0.00 0.00 89 1009.2
20260508104521 33 323 0.0 0.0 0.00 0.00 0.00 89 1009.1
20260508103029 32 323 0.0 0.0 0.00 0.00 0.00 90 1009.0
20260508101528 32 323 0.0 0.0 0.00 0.00 0.00 90 1008.8
20260508100015 32 323 0.0 0.0 0.00 0.00 0.00 90 1008.5
20260508094512 31 323 0.0 0.0 0.00 0.00 0.00 89 1008.5
20260508093012 31 323 0.0 0.0 0.00 0.00 0.00 88 1008.4
20260508091512 31 323 0.0 5.2 0.00 0.00 0.00 88 1008.3
20260508090009 31 321 0.0 1.7 0.00 0.00 0.00 87 1008.2
20260508084508 31 323 0.0 3.5 0.00 0.00 0.00 86 1008.2
20260508083007 31 13 0.0 2.6 0.00 0.00 0.00 86 1008.1
20260508081505 31 13 0.9 1.7 0.00 0.00 0.00 85 1008.2
20260508080007 31 13 0.0 0.0 0.00 0.00 0.00 85 1008.1
20260508074505 31 12 0.0 0.0 0.00 0.00 0.00 84 1007.8
20260508073007 31 12 0.0 0.0 0.00 0.00 0.00 85 1007.7
20260508071503 31 12 0.0 0.0 0.00 0.00 0.00 85 1007.7
20260508070001 31 12 0.0 0.0 0.00 0.00 0.00 83 1007.8
20260508064615 31 12 0.0 0.0 0.00 0.00 0.00 83 1007.8
20260508063108 32 12 0.0 0.0 0.00 0.00 0.00 82 1007.9
20260508061558 32 12 0.0 0.0 0.00 0.00 0.00 81 1008.0
20260508060054 33 12 0.0 0.0 0.00 0.00 0.00 80 1008.0
20260508054601 33 12 0.0 0.0 0.00 0.00 0.00 79 1008.1
20260508053051 33 12 0.0 0.0 0.00 0.00 0.00 78 1008.0
20260508051552 34 12 0.0 0.0 0.00 0.00 0.00 78 1007.9
20260508050046 35 12 0.0 0.0 0.00 0.00 0.00 77 1007.8
20260508044544 35 12 0.0 0.0 0.00 0.00 0.00 76 1008.3
20260508043046 35 12 0.0 0.0 0.00 0.00 0.00 75 1008.3
20260508041540 36 12 0.0 0.0 0.00 0.00 0.00 74 1008.4
20260508040041 36 12 0.0 0.0 0.00 0.00 0.00 74 1008.4
20260508034536 37 12 0.0 0.0 0.00 0.00 0.00 73 1008.4
20260508033034 37 12 0.0 0.0 0.00 0.00 0.00 70 1008.5
20260508031533 38 13 0.0 0.0 0.00 0.00 0.00 70 1008.3
20260508030031 38 12 0.0 0.0 0.00 0.00 0.00 67 1008.4
20260508024541 40 12 0.0 0.0 0.00 0.00 0.00 67 1008.4
20260508023030 41 12 0.0 0.0 0.00 0.00 0.00 64 1008.3
20260508021528 41 12 0.0 0.0 0.00 0.00 0.00 62 1008.2
20260508020027 42 12 0.0 0.0 0.00 0.00 0.00 60 1008.2
20260508014543 43 17 0.0 5.2 0.00 0.01 0.00 57 1008.0
20260508013028 43 5 0.0 7.0 0.00 0.01 0.00 56 1007.7
20260508011528 44 343 0.0 4.3 0.00 0.01 0.00 55 1007.6
20260508010030 44 313 3.5 7.0 0.00 0.01 0.00 53 1007.5
20260508004528 45 333 0.0 6.1 0.00 0.02 0.00 54 1007.3
20260508003049 46 350 4.3 7.8 0.00 0.02 0.00 52 1007.1
20260508001523 46 313 0.0 3.5 0.00 0.02 0.00 50 1006.9
20260508000024 47 298 0.0 5.2 0.00 0.02 0.00 50 1006.7
20260507234523 48 263 0.0 7.8 0.00 0.02 0.00 48 1006.7
20260507233031 48 243 4.3 11.3 0.00 0.02 0.00 46 1006.5
20260507231522 49 281 4.3 11.3 0.00 0.02 0.00 46 1006.4
20260507230021 50 292 2.6 9.6 0.00 0.02 0.00 46 1006.4
20260507224522 50 285 7.0 13.0 0.00 0.02 0.00 46 1006.5
20260507223021 50 242 5.2 12.2 0.00 0.02 0.00 46 1006.4
20260507221520 51 279 4.3 13.0 0.00 0.02 0.00 45 1006.4
20260507220020 51 290 6.1 15.6 0.00 0.02 0.00 44 1006.3
20260507214520 51 208 0.9 11.3 0.00 0.02 0.00 48 1006.3
20260507213020 51 161 3.5 11.3 0.00 0.02 0.00 46 1006.2
20260507211519 50 319 6.1 13.9 0.00 0.02 0.00 47 1006.3
20260507210018 51 223 5.2 13.9 0.00 0.02 0.00 44 1006.2
20260507204517 52 316 6.1 18.2 0.00 0.08 0.00 45 1006.1
20260507203018 52 331 8.7 13.0 0.00 0.08 0.00 46 1006.1
20260507201519 50 180 3.5 12.2 0.00 0.08 0.00 50 1006.2
20260507200015 50 296 0.0 12.2 0.00 0.08 0.00 49 1006.2
20260507194516 50 309 6.1 17.4 0.00 0.11 0.00 48 1006.4
20260507193014 50 311 7.8 13.0 0.00 0.11 0.00 47 1006.4
20260507191514 50 283 2.6 13.9 0.00 0.11 0.00 48 1006.5
20260507190014 50 314 5.2 10.4 0.00 0.11 0.00 48 1006.7
20260507184516 50 350 4.3 11.3 0.00 0.20 0.00 50 1006.7
20260507183013 50 254 6.1 14.8 0.00 0.20 0.00 48 1006.9
20260507181512 50 279 2.6 13.9 0.00 0.20 0.00 48 1007.0
20260507180014 51 347 7.0 13.9 0.00 0.20 0.00 45 1007.0
20260507174511 52 323 7.8 17.4 0.00 0.33 0.00 44 1007.0